�������l�o���
Date,Time,MP-1(��Sv/h),MP-2(��Sv/h),MP-3(��Sv/h),MP-4(��Sv/h),MP-5(��Sv/h),MP-6(��Sv/h),MP-7(��Sv/h),MP-8(��Sv/h),����,����(m/s),���J
2019/06/03,00:00,0.763,1.103,0.760,1.373,1.030,0.441,0.767,0.722,��쐼,4.4,��
2019/06/03,00:10,0.763,1.103,0.761,1.374,1.028,0.442,0.768,0.723,��쐼,4.0,��
2019/06/03,00:20,0.763,1.103,0.761,1.374,1.028,0.441,0.768,0.723,��쐼,4.6,��
2019/06/03,00:30,0.765,1.104,0.760,1.376,1.032,0.442,0.767,0.722,��쐼,4.4,��
2019/06/03,00:40,0.761,1.103,0.763,1.376,1.030,0.441,0.767,0.723,��,2.9,��
2019/06/03,00:50,0.763,1.103,0.761,1.375,1.030,0.442,0.766,0.723,��쐼,2.0,��
2019/06/03,01:00,0.763,1.102,0.761,1.378,1.029,0.442,0.767,0.722,��,2.6,��
2019/06/03,01:10,0.762,1.101,0.761,1.376,1.030,0.443,0.767,0.723,��,3.1,��
2019/06/03,01:20,0.762,1.102,0.761,1.376,1.028,0.441,0.765,0.723,��,4.1,��
2019/06/03,01:30,0.763,1.103,0.762,1.373,1.029,0.442,0.766,0.725,��,4.0,��
2019/06/03,01:40,0.764,1.102,0.763,1.376,1.029,0.440,0.768,0.725,��,3.7,��
2019/06/03,01:50,0.762,1.104,0.760,1.378,1.028,0.441,0.766,0.724,��,3.7,��
2019/06/03,02:00,0.762,1.101,0.760,1.375,1.029,0.443,0.768,0.722,��쐼,4.0,��
2019/06/03,02:10,0.764,1.105,0.760,1.376,1.030,0.442,0.769,0.721,��쐼,3.8,��
2019/06/03,02:20,0.762,1.103,0.762,1.375,1.027,0.440,0.765,0.723,��쐼,3.5,��
2019/06/03,02:30,0.764,1.104,0.761,1.376,1.029,0.442,0.767,0.723,��,3.7,��
2019/06/03,02:40,0.763,1.103,0.761,1.376,1.032,0.443,0.767,0.722,��,4.1,��
2019/06/03,02:50,0.762,1.102,0.761,1.374,1.029,0.441,0.765,0.723,��,2.8,��
2019/06/03,03:00,0.762,1.106,0.762,1.378,1.030,0.441,0.765,0.724,��쐼,1.7,��
2019/06/03,03:10,0.762,1.104,0.762,1.377,1.028,0.442,0.766,0.722,�쐼,0.6,��
2019/06/03,03:20,0.764,1.103,0.762,1.375,1.028,0.443,0.765,0.724,-,CALM,��
2019/06/03,03:30,0.762,1.101,0.763,1.375,1.030,0.442,0.767,0.722,�k,1.1,��
2019/06/03,03:40,0.762,1.103,0.762,1.376,1.029,0.443,0.768,0.723,�k�k��,2.2,��
2019/06/03,03:50,0.763,1.103,0.761,1.374,1.027,0.442,0.767,0.724,�k,2.0,��
2019/06/03,04:00,0.761,1.103,0.761,1.375,1.029,0.441,0.766,0.725,�k�k��,2.5,��
2019/06/03,04:10,0.762,1.104,0.761,1.375,1.030,0.442,0.766,0.722,�k�k��,2.5,��
2019/06/03,04:20,0.762,1.101,0.763,1.378,1.029,0.442,0.766,0.724,�k�k��,2.6,��
2019/06/03,04:30,0.760,1.102,0.759,1.375,1.030,0.441,0.766,0.723,�k,3.2,��
2019/06/03,04:40,0.763,1.104,0.761,1.376,1.028,0.441,0.766,0.723,�k,3.9,��
2019/06/03,04:50,0.760,1.103,0.760,1.375,1.028,0.442,0.767,0.725,�k�k��,4.4,��
2019/06/03,05:00,0.762,1.101,0.761,1.377,1.028,0.441,0.768,0.724,�k�k��,3.0,��
2019/06/03,05:10,0.761,1.104,0.759,1.377,1.030,0.441,0.768,0.722,�k,3.4,��
2019/06/03,05:20,0.762,1.101,0.762,1.375,1.031,0.441,0.765,0.722,�k�k��,3.0,��
2019/06/03,05:30,0.761,1.104,0.761,1.375,1.030,0.441,0.768,0.722,�k�k��,2.6,��
2019/06/03,05:40,0.762,1.103,0.762,1.376,1.026,0.441,0.766,0.724,�k��,1.4,��
2019/06/03,05:50,0.761,1.104,0.761,1.376,1.028,0.439,0.767,0.724,���k��,1.4,��
2019/06/03,06:00,0.763,1.103,0.761,1.377,1.030,0.442,0.767,0.723,�k�k��,2.5,��
2019/06/03,06:10,0.761,1.101,0.760,1.377,1.029,0.440,0.766,0.724,�k�k��,2.3,��
2019/06/03,06:20,0.762,1.104,0.761,1.375,1.029,0.440,0.767,0.724,�k�k��,2.8,��
2019/06/03,06:30,0.764,1.102,0.762,1.376,1.028,0.440,0.768,0.724,�k�k��,2.3,��
2019/06/03,06:40,0.761,1.103,0.762,1.375,1.027,0.439,0.766,0.725,�k�k��,1.5,��
2019/06/03,06:50,0.763,1.101,0.760,1.374,1.026,0.440,0.768,0.724,�k��,1.5,��
2019/06/03,07:00,0.766,1.098,0.759,1.377,1.027,0.439,0.767,0.725,�k,1.7,��
2019/06/03,07:10,0.760,1.099,0.762,1.378,1.027,0.439,0.768,0.725,�k,1.4,��
2019/06/03,07:20,0.760,1.099,0.762,1.376,1.029,0.438,0.767,0.724,�k�k��,1.4,��
2019/06/03,07:30,0.761,1.099,0.762,1.376,1.026,0.438,0.766,0.723,�k�k��,1.5,��
2019/06/03,07:40,0.759,1.098,0.760,1.378,1.027,0.439,0.765,0.723,���k��,2.0,��
2019/06/03,07:50,0.759,1.098,0.760,1.376,1.028,0.437,0.765,0.721,�k��,2.2,��
2019/06/03,08:00,0.759,1.099,0.759,1.377,1.029,0.437,0.765,0.720,��,1.7,��
2019/06/03,08:10,0.761,1.102,0.760,1.376,1.029,0.438,0.766,0.720,�쓌,1.9,��
2019/06/03,08:20,0.761,1.097,0.759,1.376,1.028,0.438,0.766,0.720,���쓌,2.2,��
2019/06/03,08:30,0.759,1.100,0.758,1.376,1.026,0.438,0.763,0.720,�쓌,2.6,��
2019/06/03,08:40,0.761,1.101,0.759,1.374,1.027,0.437,0.764,0.720,�쓌,3.5,��
2019/06/03,08:50,0.762,1.098,0.761,1.378,1.025,0.436,0.762,0.720,���쓌,2.9,��
2019/06/03,09:00,0.760,1.100,0.760,1.378,1.027,0.439,0.765,0.721,���쓌,2.8,��
2019/06/03,09:10,0.760,1.098,0.759,1.378,1.029,0.439,0.764,0.721,��쓌,3.1,��
2019/06/03,09:20,0.762,1.102,0.758,1.377,1.026,0.437,0.767,0.720,��쓌,4.0,��
2019/06/03,09:30,0.760,1.101,0.759,1.376,1.025,0.439,0.766,0.720,��쓌,4.4,��
2019/06/03,09:40,0.759,1.102,0.757,1.377,1.026,0.438,0.764,0.719,��쓌,5.8,��
2019/06/03,09:50,0.759,1.103,0.757,1.379,1.029,0.438,0.764,0.721,��쓌,8.1,��
2019/06/03,10:00,0.763,1.101,0.758,1.376,1.029,0.437,0.766,0.720,��쓌,6.5,��
2019/06/03,10:10,0.760,1.099,0.759,1.378,1.030,0.438,0.765,0.722,��쓌,9.7,��
2019/06/03,10:20,0.763,1.100,0.758,1.378,1.027,0.438,0.765,0.719,��쓌,13.5,��
2019/06/03,10:30,0.763,1.103,0.756,1.378,1.029,0.438,0.767,0.721,��쓌,13.0,��
2019/06/03,10:40,0.762,1.102,0.759,1.377,1.028,0.438,0.765,0.720,��쓌,11.3,��
2019/06/03,10:50,0.763,1.103,0.759,1.378,1.031,0.439,0.765,0.721,��쓌,13.0,��
2019/06/03,11:00,0.764,1.102,0.760,1.380,1.031,0.439,0.768,0.720,��쓌,13.5,��
2019/06/03,11:10,0.766,1.104,0.760,1.377,1.032,0.440,0.766,0.721,��,12.4,��
2019/06/03,11:20,0.765,1.104,0.762,1.373,1.032,0.439,0.768,0.723,��쓌,12.7,��
2019/06/03,11:30,0.762,1.106,0.760,1.374,1.030,0.440,0.769,0.722,��쓌,13.1,��
2019/06/03,11:40,0.763,1.107,0.763,1.376,1.032,0.441,0.767,0.722,��쓌,11.6,��
2019/06/03,11:50,0.765,1.103,0.761,1.378,1.032,0.442,0.766,0.721,��쓌,13.5,��
2019/06/03,12:00,0.765,1.104,0.762,1.375,1.033,0.441,0.766,0.721,��쓌,11.9,��
2019/06/03,12:10,0.764,1.105,0.763,1.378,1.032,0.442,0.765,0.722,��쓌,12.7,��
2019/06/03,12:20,0.764,1.108,0.764,1.377,1.032,0.442,0.766,0.722,��쓌,11.8,��
2019/06/03,12:30,0.765,1.105,0.763,1.377,1.034,0.444,0.764,0.722,��쓌,10.6,��
2019/06/03,12:40,0.765,1.107,0.763,1.379,1.034,0.442,0.767,0.723,��쓌,11.1,��
2019/06/03,12:50,0.766,1.109,0.763,1.379,1.035,0.441,0.765,0.724,��쓌,12.2,��
2019/06/03,13:00,0.767,1.111,0.764,1.378,1.036,0.441,0.767,0.722,��쓌,13.1,��
2019/06/03,13:10,0.765,1.108,0.764,1.379,1.036,0.441,0.765,0.722,��쓌,13.3,��
2019/06/03,13:20,0.766,1.108,0.762,1.376,1.036,0.441,0.765,0.722,��쓌,14.2,��
2019/06/03,13:30,0.762,1.106,0.763,1.381,1.037,0.441,0.765,0.722,��쓌,14.1,��
2019/06/03,13:40,0.761,1.107,0.763,1.381,1.036,0.442,0.765,0.722,��쓌,12.4,��
2019/06/03,13:50,0.762,1.105,0.762,1.383,1.036,0.442,0.766,0.722,��쓌,13.5,��
2019/06/03,14:00,0.762,1.105,0.765,1.380,1.038,0.441,0.766,0.722,��쓌,12.8,��
2019/06/03,14:10,0.763,1.107,0.763,1.381,1.035,0.441,0.767,0.722,��쓌,13.3,��
2019/06/03,14:20,0.763,1.106,0.765,1.380,1.037,0.441,0.767,0.722,��쓌,13.1,��
2019/06/03,14:30,0.760,1.108,0.762,1.382,1.037,0.441,0.767,0.723,��쓌,13.5,��
2019/06/03,14:40,0.763,1.111,0.763,1.382,1.034,0.444,0.766,0.723,��쓌,14.4,��
2019/06/03,14:50,0.760,1.111,0.766,1.381,1.036,0.442,0.767,0.723,��쓌,13.8,��
2019/06/03,15:00,0.762,1.112,0.763,1.383,1.037,0.442,0.767,0.725,��쓌,13.9,��
2019/06/03,15:10,0.762,1.109,0.764,1.384,1.037,0.443,0.767,0.723,��쓌,14.4,��
2019/06/03,15:20,0.763,1.110,0.763,1.382,1.035,0.441,0.767,0.723,��쓌,15.5,��
2019/06/03,15:30,0.765,1.109,0.766,1.384,1.037,0.442,0.767,0.722,��쓌,14.6,��
2019/06/03,15:40,0.767,1.108,0.765,1.384,1.036,0.442,0.767,0.722,��쓌,14.9,��
2019/06/03,15:50,0.766,1.111,0.765,1.383,1.035,0.441,0.767,0.722,��,13.5,��
2019/06/03,16:00,0.766,1.107,0.764,1.386,1.037,0.441,0.767,0.723,��쓌,12.7,��
2019/06/03,16:10,0.767,1.106,0.764,1.384,1.037,0.443,0.768,0.722,��쓌,12.4,��
2019/06/03,16:20,0.767,1.111,0.767,1.381,1.037,0.441,0.769,0.722,��쓌,13.3,��
2019/06/03,16:30,0.766,1.106,0.764,1.383,1.038,0.442,0.768,0.720,��쓌,13.1,��
2019/06/03,16:40,0.768,1.107,0.764,1.386,1.038,0.442,0.767,0.724,��,12.4,��
2019/06/03,16:50,0.767,1.108,0.763,1.384,1.037,0.442,0.767,0.722,��,9.0,��
2019/06/03,17:00,0.766,1.110,0.765,1.382,1.037,0.442,0.767,0.723,��쓌,9.1,��
2019/06/03,17:10,0.766,1.108,0.766,1.385,1.037,0.441,0.767,0.723,��,10.7,��
2019/06/03,17:20,0.767,1.110,0.766,1.386,1.036,0.441,0.768,0.722,��,11.6,��
2019/06/03,17:30,0.767,1.114,0.766,1.385,1.036,0.442,0.767,0.723,��쓌,10.2,��
2019/06/03,17:40,0.764,1.113,0.766,1.389,1.036,0.440,0.767,0.723,��,10.0,��
2019/06/03,17:50,0.768,1.115,0.767,1.385,1.036,0.439,0.768,0.723,��,8.5,��
2019/06/03,18:00,0.766,1.115,0.764,1.389,1.036,0.442,0.766,0.724,��,9.4,��
2019/06/03,18:10,0.767,1.116,0.767,1.388,1.038,0.441,0.767,0.725,��,9.4,��
2019/06/03,18:20,0.766,1.115,0.765,1.384,1.037,0.442,0.766,0.725,��,9.1,��
2019/06/03,18:30,0.765,1.116,0.765,1.387,1.039,0.442,0.768,0.726,��,9.8,��
2019/06/03,18:40,0.765,1.114,0.763,1.387,1.037,0.442,0.768,0.726,��,9.7,��
2019/06/03,18:50,0.766,1.115,0.764,1.386,1.037,0.442,0.765,0.726,��,7.6,��
2019/06/03,19:00,0.768,1.117,0.765,1.385,1.035,0.442,0.766,0.725,��,7.8,��
2019/06/03,19:10,0.766,1.114,0.765,1.385,1.038,0.442,0.767,0.724,��,7.5,��
2019/06/03,19:20,0.765,1.113,0.765,1.385,1.039,0.444,0.769,0.727,��,8.2,��
2019/06/03,19:30,0.765,1.114,0.768,1.386,1.039,0.442,0.771,0.725,��,8.1,��
2019/06/03,19:40,0.767,1.115,0.768,1.388,1.042,0.442,0.769,0.726,��,7.8,��
2019/06/03,19:50,0.767,1.114,0.768,1.389,1.039,0.443,0.769,0.726,��,7.8,��
2019/06/03,20:00,0.766,1.115,0.767,1.388,1.040,0.443,0.768,0.726,��,8.3,��
2019/06/03,20:10,0.765,1.116,0.766,1.387,1.040,0.443,0.767,0.726,��,7.2,��
2019/06/03,20:20,0.767,1.118,0.767,1.386,1.040,0.442,0.768,0.726,��,8.1,��
2019/06/03,20:30,0.767,1.117,0.767,1.388,1.041,0.443,0.769,0.724,��,8.8,��
2019/06/03,20:40,0.767,1.117,0.767,1.390,1.042,0.443,0.769,0.725,��,8.6,��
2019/06/03,20:50,0.768,1.115,0.770,1.388,1.040,0.443,0.769,0.725,��,8.4,��
2019/06/03,21:00,0.767,1.116,0.769,1.389,1.040,0.441,0.768,0.725,��,8.8,��
2019/06/03,21:10,0.769,1.117,0.769,1.388,1.040,0.442,0.768,0.725,��,8.4,��
2019/06/03,21:20,0.767,1.119,0.771,1.388,1.040,0.443,0.768,0.725,��,8.7,��
2019/06/03,21:30,0.766,1.116,0.770,1.389,1.041,0.441,0.768,0.725,��,9.5,��
2019/06/03,21:40,0.766,1.116,0.767,1.388,1.040,0.443,0.770,0.725,��,8.7,��
2019/06/03,21:50,0.767,1.116,0.768,1.392,1.039,0.443,0.771,0.726,��,9.5,��
2019/06/03,22:00,0.766,1.117,0.769,1.389,1.040,0.442,0.768,0.725,��,9.9,��
2019/06/03,22:10,0.765,1.118,0.769,1.389,1.042,0.444,0.768,0.725,��,8.5,��
2019/06/03,22:20,0.765,1.116,0.766,1.389,1.040,0.441,0.769,0.726,��,8.8,��
2019/06/03,22:30,0.766,1.117,0.767,1.388,1.040,0.443,0.768,0.725,��,8.7,��
2019/06/03,22:40,0.767,1.115,0.767,1.389,1.039,0.444,0.769,0.725,��,9.4,��
2019/06/03,22:50,0.764,1.116,0.769,1.388,1.041,0.443,0.770,0.724,��,7.8,��
2019/06/03,23:00,0.765,1.116,0.768,1.391,1.040,0.441,0.769,0.724,��,7.8,��
2019/06/03,23:10,0.769,1.116,0.768,1.389,1.040,0.442,0.770,0.726,��,7.0,��
2019/06/03,23:20,0.767,1.113,0.768,1.391,1.041,0.443,0.767,0.724,��쐼,6.3,��
2019/06/03,23:30,0.768,1.116,0.770,1.392,1.041,0.442,0.767,0.722,��,6.0,��
2019/06/03,23:40,0.768,1.116,0.769,1.391,1.039,0.443,0.769,0.724,��,6.4,��
2019/06/03,23:50,0.768,1.116,0.768,1.389,1.038,0.443,0.768,0.725,��,6.4,��
